{"data":{"norad_id":64867,"intl_designator":"2025-153B","name":"O3B MPOWER F10","alt_names":[],"object_type":"PAYLOAD","status":"ACTIVE","operator":null,"country":"O3B","launch_date":"2025-07-22","launch_site_code":"AFETR","launch_vehicle":null,"mission":null,"orbit_class":"UNKNOWN","rcs_meters":null,"size_class":null,"mass_kg":null,"dimensions":null,"purposes":["comms"],"wikipedia_slug":null,"has_3d_model":false,"image_url":null,"decayed_at":null,"tle_current":{"epoch":"2026-09-19T21:21:45.717408Z","epoch_age_seconds":67122,"freshness":"FRESH","line1":"1 64867U 25153B   26262.89011247 -.00000027  00000+0  00000+0 0  9995","line2":"2 64867   0.0626 354.9318 0004583 273.6683  91.3497  5.00114884 26771","mean_motion":5.00114884,"eccentricity":0.0004583,"inclination_deg":0.0626,"raan_deg":354.9318,"arg_perigee_deg":273.6683,"mean_anomaly_deg":91.3497,"bstar":0,"rev_number":2677,"period_min":287.93384201699,"perigee_km":8059.2823758116,"apogee_km":8072.5217820314,"semimajor_km":14444.039078921,"source":"CELESTRAK","updated_at":"2026-09-20T09:00:35.691122Z"}}}